Flag for Liechtenstein Weather past 2 weeks in Vaduz, Liechtenstein

Now
51 °F

Cool.


Feels Like: 51 °F
Forecast: 49 / 77 °F
Wind: 1 mph from Southeast

Location: Vaduz

Current Time: Aug 21, 2014 at 7:01:17 AM

Latest Report: Aug 21, 2014 at 6:00 AM


Visibility: N/A

Pressure: 30.10 "Hg

Humidity: 95%

Dew point: 50 °F

Location of VaduzLocation

Historic Weather in Vaduz — Graph

°F

Vaduz temperature yesterday

Maximum temperature yesterday: 62 °F (at 12:00 AM)
Minimum temperature yesterday: 56 °F (at 7:00 AM)
Average temperature yesterday: 59 °F

Past Weeks' High & Low Weather Summary

 TemperatureHumidityPressure
High73 °F (Aug 18, 3:00 PM)96% (Aug 21, 5:00 AM)30.10 "Hg (Aug 21, 5:00 AM)
Low52 °F (Aug 21, 5:00 AM)51% (Aug 18, 2:00 PM)29.80 "Hg (Aug 18, 4:00 PM)
Average62 °F72%29.96 "Hg
* Reported Aug 6 5:00 AM — Aug 21 5:00 AM, Vaduz, Weather by CustomWeather, © 2014

Note: Actual official high and low records may vary slightly from our data, if they occured in-between our weather recording intervals... More about our weather records

Advertising

Vaduz weather history for previous 24 hours

 ConditionsComfort  
Time TempWeatherWind HumidityBarometerVisibility
5:00 AM
Aug 21
52 °FRain. Overcast.No wind96%30.10 "Hg3 mi
4:00 AM53 °FCool.1 mph94%30.10 "HgN/A
3:00 AM55 °FCool.2 mph86%30.09 "HgN/A
2:00 AM55 °FRain. Overcast.1 mph94%30.07 "Hg3 mi
1:00 AM56 °FCool.1 mph87%30.05 "HgN/A
12:00 AM57 °FCool.5 mph87%30.03 "HgN/A
11:00 PM
Aug 20
57 °FOvercast.3 mph86%30.03 "Hg9 mi
10:00 PM57 °FCool.3 mph85%30.03 "HgN/A
9:00 PM57 °FCool.3 mph88%30.02 "HgN/A
8:00 PM58 °FOvercast.3 mph85%30.01 "Hg9 mi
7:00 PM60 °FCool.1 mph79%29.99 "HgN/A
6:00 PM60 °FCool.No wind76%29.99 "HgN/A
5:00 PM61 °FCool.2 mph71%29.99 "HgN/A
4:00 PM61 °FCool.3 mph71%29.99 "HgN/A
3:00 PM61 °FCool.3 mph72%30.01 "HgN/A
2:00 PM61 °FCool.3 mph71%30.01 "HgN/A
1:00 PM60 °FCool.3 mph71%30.02 "HgN/A
12:00 PM59 °FCool.2 mph78%30.03 "HgN/A
11:00 AM59 °FFog.1 mph75%30.03 "Hg6 mi
10:00 AM58 °FCool.No wind83%30.03 "HgN/A
9:00 AM57 °FCool.No wind88%30.02 "HgN/A
8:00 AM56 °FOvercast.1 mph89%30.03 "Hg6 mi
7:00 AM56 °FCool.No wind88%30.03 "HgN/A
Weather by CustomWeather, © 2014

See weather overviewHow to use our weather pages